Location: Huberhof
(49.2050°N, 7.4980°E)
Time: 03:48:04
(UTC+00:00)

Lacrosse 5 - Pass Details

Date: 29 October 2020
Orbit: 716 x 723 km, 57.0° (Epoch: 06 November)

Event Time Altitude Azimuth Distance (km) Brightness Sun altitude
Rises 18:11:54 0° 297° (WNW) 3,125 6.3 -19.9°
Reaches altitude 10° 18:14:25 10° 305° (NW) 2,204 5.2 -20.3°
Maximum altitude 18:19:11 39° 14° (NNE) 1,069 2.6 -21.1°
Enters shadow 18:20:12 35° 42° (NE) 1,145 2.6 -21.2°
